Waterloo, IA

9:51 PM CDT on October 23, 2019 (GMT -0500)
Waterloo Municipal

Weather History for KALO - September, 2019

Change the Weather History Date:

Sunday, September 15, 2019

  Actual Average Record
Temperature  
Mean Temperature 75 °F 64 °F  
Max Temperature 88 °F 76 °F 100 °F (1927)
Min Temperature 62 °F 51 °F 30 °F (2007)
Degree Days  
Heating Degree Days 0 4  
Month to date heating degree days 7 38  
Since 1 July heating degree days 12 58  
Cooling Degree Days 10 3  
Month to date cooling degree days 73 56  
Year to date cooling degree days 833 768  
Growing Degree Days 25 (Base 50)    
Moisture  
Dew Point 67 °F    
Average Humidity 78    
Maximum Humidity 93    
Minimum Humidity 59    
Precipitation  
Precipitation 0.00 in 0.08 in 1.51 in (2016)
Month to date precipitation 3.02 1.38  
Year to date precipitation 31.26 27.66  
Snow  
Snow 0.00 in 0.00 in - ()
Month to date snowfall 0.0 0.0  
Since 1 July snowfall 0.0 0.0  
Since 1 September snowfall 0.0 0.0  
Snow Depth 0.00 in    
Sea Level Pressure  
Sea Level Pressure 29.97 in    
Wind  
Wind Speed 5 mph ()    
Max Wind Speed 16 mph    
Max Gust Speed 21 mph    
Visibility 9.9 miles    
Events      
T = Trace of Precipitation, MM = Missing Value Source: Averaged Metar Reports

Daily Weather History Graph

Daily Weather History Graph

Search for Another Location

Airport or City:

Astronomy

Sep. 15, 2019 Rise Set
Actual Time 6:49 AM CDT 7:19 PM CDT
Civil Twilight 6:20 AM CDT 7:47 PM CDT
Nautical Twilight 5:47 AM CDT 8:21 PM CDT
Astronomical Twilight 5:13 AM CDT 8:55 PM CDT
Moon 8:26 PM CDT (9/15) 8:00 AM CDT (9/15)
Length of Visible Light 13h 27m
Length of Day
12h 30m
Full, 98% of the Moon is Illuminated
Sep 15
Full
Sep 21
Last Quarter
Sep 28
New
Oct 5
First Quarter
Oct 13
Full

Hourly Weather History & Observations

Time (CDT) Temp. Heat Index Dew Point Humidity Pressure Visibility Wind Dir Wind Speed Gust Speed Precip Events Conditions
12:54 AM 70.0 °F - 62.1 °F 76% 29.96 in 10.0 mi South 11.5 mph - N/A   Scattered Clouds
1:54 AM 68.0 °F - 63.0 °F 84% 29.95 in 10.0 mi SSE 6.9 mph - N/A   Mostly Cloudy
2:54 AM 68.0 °F - 63.0 °F 84% 29.93 in 10.0 mi South 5.8 mph - N/A   Partly Cloudy
3:54 AM 66.9 °F - 63.0 °F 87% 29.94 in 10.0 mi South 6.9 mph - N/A   Mostly Cloudy
4:54 AM 66.9 °F - 64.0 °F 90% 29.93 in 10.0 mi SE 4.6 mph - N/A   Mostly Cloudy
5:54 AM 66.0 °F - 63.0 °F 90% 29.94 in 10.0 mi ESE 5.8 mph - N/A   Clear
6:54 AM 69.1 °F - 64.9 °F 87% 29.96 in 10.0 mi SE 5.8 mph - N/A   Overcast
7:14 AM 69.1 °F - 64.9 °F 87% 29.97 in 10.0 mi ESE 5.8 mph - N/A   Overcast
7:54 AM 69.1 °F - 64.9 °F 87% 29.96 in 9.0 mi SE 8.1 mph - N/A   Overcast
8:54 AM 71.1 °F - 66.9 °F 87% 29.96 in 10.0 mi SE 5.8 mph - N/A   Mostly Cloudy
9:54 AM 75.0 °F - 68.0 °F 79% 29.95 in 10.0 mi SW 5.8 mph - N/A   Overcast
10:13 AM 75.9 °F - 69.1 °F 79% 29.96 in 10.0 mi Variable 4.6 mph - N/A   Scattered Clouds
10:54 AM 78.1 °F - 69.1 °F 74% 29.96 in 10.0 mi Calm Calm - N/A   Mostly Cloudy
11:25 AM 79.0 °F - 70.0 °F 74% 29.97 in 10.0 mi Calm Calm - N/A   Scattered Clouds
11:46 AM 79.0 °F - 70.0 °F 74% 29.97 in 10.0 mi Calm Calm - N/A   Mostly Cloudy
11:54 AM 80.1 °F 83.2 °F 70.0 °F 71% 29.96 in 10.0 mi SSW 4.6 mph - N/A   Mostly Cloudy
12:54 PM 81.0 °F 84.4 °F 70.0 °F 69% 29.97 in 10.0 mi Calm Calm - N/A   Overcast
1:37 PM 82.9 °F 88.0 °F 72.0 °F 69% 29.98 in 10.0 mi WSW 3.5 mph - N/A   Overcast
1:54 PM 82.0 °F 86.3 °F 71.1 °F 69% 29.96 in 10.0 mi Variable 4.6 mph - N/A   Mostly Cloudy
2:54 PM 86.0 °F 92.2 °F 72.0 °F 63% 29.95 in 10.0 mi NW 6.9 mph - N/A   Scattered Clouds
3:54 PM 88.0 °F 94.7 °F 72.0 °F 59% 29.94 in 10.0 mi NW 4.6 mph - N/A   Scattered Clouds
4:54 PM 84.9 °F 90.1 °F 71.1 °F 63% 29.96 in 10.0 mi North 9.2 mph - N/A   Clear
5:54 PM 84.0 °F 89.0 °F 71.1 °F 65% 29.96 in 10.0 mi NNE 6.9 mph - N/A   Clear
6:54 PM 79.0 °F - 68.0 °F 69% 29.97 in 10.0 mi North 6.9 mph - N/A   Clear
7:54 PM 70.0 °F - 64.9 °F 84% 29.98 in 10.0 mi North 6.9 mph - N/A   Clear
8:54 PM 69.1 °F - 64.0 °F 84% 30.01 in 10.0 mi Calm Calm - N/A   Clear
9:54 PM 66.9 °F - 62.1 °F 84% 30.02 in 10.0 mi Calm Calm - N/A   Clear
10:54 PM 64.9 °F - 61.0 °F 87% 30.03 in 10.0 mi Calm Calm - N/A   Clear
11:54 PM 63.0 °F - 60.1 °F 90% 30.02 in 7.0 mi NE 4.6 mph - N/A   Partly Cloudy